Pellston, MI

2:46 PM EST on November 21, 2017 (GMT -0500)
Pellston Regional Airport Of Emmet County

Weather History for KPLN - April, 2013

Change the Weather History Date:

Monday, April 29, 2013

  Actual Average Record
Temperature  
Mean Temperature 50 °F -  
Max Temperature 64 °F 60 °F 87 °F (1970)
Min Temperature 37 °F 34 °F 20 °F (1953)
Degree Days  
Heating Degree Days 14    
Moisture  
Dew Point 47 °F    
Average Humidity 90    
Maximum Humidity 100    
Minimum Humidity 54    
Precipitation  
Precipitation 0.17 in - - ()
Sea Level Pressure  
Sea Level Pressure 29.86 in    
Wind  
Wind Speed 2 mph (SE)    
Max Wind Speed 9 mph    
Max Gust Speed -    
Visibility 4 miles    
Events Fog , Rain    
Averages and records for this station are not official NWS values.
T = Trace of Precipitation, MM = Missing Value Source: NWS Daily Summary

Daily Weather History Graph

Daily Weather History Graph

Search for Another Location

Airport or City:

Trip Planner

Search our weather history database for the weather conditions in past years. The results will help you decide how hot, cold, wet, or windy it might be!

Date:

Astronomy

Apr. 29, 2013 Rise Set
Actual Time 6:29 AM EDT 8:43 PM EDT
Civil Twilight 5:57 AM EDT 9:16 PM EDT
Nautical Twilight 5:16 AM EDT 9:57 PM EDT
Astronomical Twilight 4:32 AM EDT 10:42 PM EDT
Moon 12:17 AM EDT (4/29) 9:44 AM EDT (4/29)
Length of Visible Light 15h 19m
Length of Day
14h 14m
Waning Gibbous, 80% of the Moon is Illuminated
Apr 29
Waning Gibbous
May 2
Last Quarter
May 9
New
May 18
First Quarter
May 25
Full

Hourly Weather History & Observations

Time (EDT) Temp. Windchill Dew Point Humidity Pressure Visibility Wind Dir Wind Speed Gust Speed Precip Events Conditions
12:54 AM 51.1 °F - 44.1 °F 77% 29.85 in 10.0 mi SSE 3.5 mph - N/A   Clear
1:54 AM 48.0 °F - 43.0 °F 83% 29.86 in 10.0 mi Calm Calm - N/A   Clear
2:54 AM 45.0 °F 43.5 °F 42.1 °F 90% 29.85 in 10.0 mi SSE 3.5 mph - N/A   Clear
3:54 AM 42.1 °F - 39.9 °F 92% 29.85 in 7.0 mi Calm Calm - N/A   Clear
4:49 AM 39.2 °F - 39.2 °F 100% 29.83 in 2.0 mi Calm Calm - N/A   Clear
4:54 AM 41.0 °F - 39.0 °F 93% 29.84 in 5.0 mi Calm Calm - N/A   Clear
4:58 AM 39.2 °F - 37.4 °F 93% 29.84 in 1.8 mi Calm Calm - N/A   Clear
5:05 AM 37.4 °F - 37.4 °F 100% 29.84 in 0.5 mi Calm Calm - N/A Fog Fog
5:18 AM 37.4 °F - 37.4 °F 100% 29.85 in 0.2 mi Calm Calm - N/A Fog Fog
5:54 AM 39.0 °F - 37.9 °F 96% 29.86 in 0.2 mi Calm Calm - N/A Fog Fog
6:01 AM 39.2 °F - 37.4 °F 93% 29.85 in 1.0 mi Calm Calm - N/A   Mist
6:16 AM 37.4 °F - 37.4 °F 100% 29.86 in 1.5 mi Calm Calm - N/A   Mostly Cloudy
6:23 AM 39.2 °F - 37.4 °F 93% 29.86 in 0.2 mi Calm Calm - N/A Fog Fog
6:36 AM 39.2 °F - 37.4 °F 93% 29.86 in 0.5 mi Calm Calm - N/A Fog Fog
6:42 AM 39.2 °F - 37.4 °F 93% 29.86 in 2.5 mi Calm Calm - N/A   Overcast
6:49 AM 39.2 °F - 37.4 °F 93% 29.85 in 5.0 mi Calm Calm - N/A   Overcast
6:54 AM 39.0 °F - 37.9 °F 96% 29.86 in 5.0 mi Calm Calm - N/A   Overcast
7:07 AM 39.2 °F - 37.4 °F 93% 29.85 in 0.8 mi Calm Calm - N/A   Mist
7:15 AM 39.2 °F - 39.2 °F 100% 29.85 in 0.2 mi Calm Calm - N/A Fog Fog
7:54 AM 43.0 °F - 41.0 °F 93% 29.88 in 0.2 mi Calm Calm - N/A Fog Fog
8:18 AM 46.4 °F - 44.6 °F 93% 29.87 in 0.5 mi Calm Calm - N/A Fog Fog
8:25 AM 48.2 °F - 46.4 °F 93% 29.87 in 2.0 mi SE 4.6 mph - N/A   Mostly Cloudy
8:29 AM 48.2 °F - 46.4 °F 93% 29.88 in 4.0 mi SSE 3.5 mph - N/A   Scattered Clouds
8:54 AM 51.1 °F - 48.0 °F 89% 29.88 in 9.0 mi SSE 5.8 mph - N/A   Clear
9:54 AM 57.0 °F - 48.9 °F 74% 29.88 in 10.0 mi SE 3.5 mph - N/A   Partly Cloudy
10:54 AM 62.1 °F - 48.9 °F 62% 29.86 in 10.0 mi ESE 3.5 mph - N/A   Clear
11:54 AM 64.9 °F - 48.0 °F 54% 29.85 in 10.0 mi Variable 4.6 mph - N/A   Mostly Cloudy
12:54 PM 64.9 °F - 48.9 °F 56% 29.84 in 10.0 mi Calm Calm - N/A   Overcast
1:54 PM 64.9 °F - 48.9 °F 56% 29.85 in 10.0 mi Calm Calm - N/A   Overcast
2:54 PM 59.0 °F - 48.9 °F 69% 29.87 in 10.0 mi NW 9.2 mph - 0.00 in Rain Light Rain
3:54 PM 53.1 °F - 50.0 °F 89% 29.88 in 5.0 mi North 5.8 mph - 0.03 in Rain Light Rain
4:52 PM 53.6 °F - 51.8 °F 94% 29.86 in 2.5 mi Calm Calm - 0.08 in Rain Light Rain
4:53 PM 53.1 °F - 51.1 °F 93% 29.88 in 2.5 mi Calm Calm - 0.08 in Rain Light Rain
5:18 PM 53.6 °F - 51.8 °F 94% 29.86 in 3.0 mi Calm Calm - 0.02 in Rain Light Rain
5:27 PM 53.6 °F - 51.8 °F 94% 29.86 in 4.0 mi SE 4.6 mph - 0.02 in Rain Light Rain
5:54 PM 54.0 °F - 52.0 °F 93% 29.87 in 3.0 mi SE 3.5 mph - 0.03 in Rain Light Rain
6:31 PM 55.4 °F - 53.6 °F 94% 29.84 in 2.5 mi SE 6.9 mph - 0.00 in   Overcast
6:42 PM 55.4 °F - 53.6 °F 94% 29.85 in 3.0 mi SSE 4.6 mph - 0.00 in   Overcast
6:54 PM 55.0 °F - 53.1 °F 93% 29.86 in 4.0 mi SE 5.8 mph - 0.00 in   Overcast
7:27 PM 55.4 °F - 53.6 °F 94% 29.85 in 2.5 mi SSE 3.5 mph - N/A   Overcast
7:50 PM 53.6 °F - 53.6 °F 100% 29.86 in 1.0 mi SSE 4.6 mph - N/A   Overcast
7:54 PM 54.0 °F - 53.1 °F 97% 29.87 in 1.0 mi SSE 4.6 mph - N/A   Overcast
8:42 PM 53.6 °F - 53.6 °F 100% 29.86 in 2.0 mi SE 4.6 mph - 0.03 in   Overcast
8:54 PM 55.0 °F - 53.1 °F 93% 29.87 in 2.5 mi SSE 4.6 mph - 0.03 in Rain Light Rain
9:05 PM 55.4 °F - 53.6 °F 94% 29.86 in 3.0 mi SE 6.9 mph - 0.00 in   Overcast
9:32 PM 55.4 °F - 53.6 °F 94% 29.86 in 3.0 mi SE 9.2 mph - 0.00 in Rain Light Rain
9:41 PM 55.4 °F - 53.6 °F 94% 29.86 in 3.0 mi SSE 6.9 mph - 0.00 in   Overcast
9:54 PM 55.9 °F - 54.0 °F 93% 29.88 in 3.0 mi South 4.6 mph - 0.00 in   Overcast
10:37 PM 55.4 °F - 53.6 °F 94% 29.87 in 4.0 mi SSE 4.6 mph - N/A   Mostly Cloudy
10:54 PM 55.0 °F - 53.1 °F 93% 29.88 in 4.0 mi SE 4.6 mph - N/A   Partly Cloudy
11:25 PM 53.6 °F - 51.8 °F 94% 29.87 in 1.8 mi Calm Calm - N/A   Clear
11:34 PM 51.8 °F - 51.8 °F 100% 29.87 in 0.2 mi Calm Calm - N/A Fog Fog
11:46 PM 51.8 °F - 51.8 °F 100% 29.87 in 1.0 mi Calm Calm - N/A   Partly Cloudy
11:54 PM 53.1 °F - 51.1 °F 93% 29.87 in 0.5 mi Calm Calm - N/A Fog Fog